User: anonymous   Login
Location: Kapla
(46.2483°N, 15.0094°E)
Time: 05:40:40
(UTC+00:00)
Language:

Cosmos 2322 Rocket - Orbit

View from above orbital plane
View from above orbital plane
View from above satellite
View from above satellite

Ground track
Ground track

The orbit data is extracted from the following two-line orbital elements,

1 23705U 95058B   21127.89217916  .00000044  00000-0  46887-4 0  9995
2 23705  71.0222 288.2304 0014631 289.2667  70.6873 14.15152600317877
Epoch (UTC): 07 May 2021 21:24:44
Eccentricity: 0.0014631
inclination: 71.0222°
perigee height: 831 km
apogee height: 852 km
right ascension of ascending node: 288.2304°
argument of perigee: 289.2667°
revolutions per day: 14.15152600
mean anomaly at epoch: 70.6873°
orbit number at epoch: 31787

The dashed part of the orbit path shows where the satellite is in the earth's shadow,  

DLR